Great Bend, NY

12:15 AM EST on January 24, 2017 (GMT -0500)
Wheeler-Sack Army Air Field

Weather History for KGTB - August, 2013

Change the Weather History Date:

Friday, August 30, 2013

  Actual Average Record
Temperature  
Mean Temperature 71 °F -  
Max Temperature 83 °F 73 °F 85 °F (2010)
Min Temperature 60 °F 53 °F 44 °F (1996)
Cooling Degree Days 6    
Growing Degree Days 21 (Base 50)    
Moisture  
Dew Point 63 °F    
Average Humidity 86    
Maximum Humidity 100    
Minimum Humidity 42    
Precipitation  
Precipitation 0.01 in - - ()
Sea Level Pressure  
Sea Level Pressure 29.91 in    
Wind  
Wind Speed 5 mph (South)    
Max Wind Speed 13 mph    
Max Gust Speed 18 mph    
Visibility 8 miles    
Events Fog , Rain    
Averages and records for this station are not official NWS values.
T = Trace of Precipitation, MM = Missing Value Source: NWS Daily Summary

Daily Weather History Graph

Daily Weather History Graph

Search for Another Location

Airport or City:

Trip Planner

Search our weather history database for the weather conditions in past years. The results will help you decide how hot, cold, wet, or windy it might be!

Date:

Astronomy

Aug. 30, 2013 Rise Set
Actual Time 6:24 AM EDT 7:41 PM EDT
Civil Twilight 5:54 AM EDT 8:11 PM EDT
Nautical Twilight 5:18 AM EDT 8:47 PM EDT
Astronomical Twilight 4:39 AM EDT 9:25 PM EDT
Moon 12:54 AM EDT (8/30) 4:02 PM EDT (8/30)
Length of Visible Light 14h 17m
Length of Day
13h 17m
Waning Crescent, 29% of the Moon is Illuminated
Aug 30
Waning Crescent
Sep 5
New
Sep 12
First Quarter
Sep 19
Full
Sep 26
Last Quarter

Hourly Weather History & Observations

Time (EDT) Temp. Heat Index Dew Point Humidity Pressure Visibility Wind Dir Wind Speed Gust Speed Precip Events Conditions
12:58 AM 62.4 °F - 62.4 °F 100% 30.01 in 9.0 mi South 3.5 mph - N/A   Clear
1:08 AM 62.6 °F - 62.6 °F 100% 30.00 in 10.0 mi South 3.5 mph - N/A   Clear
1:13 AM 62.6 °F - 62.6 °F 100% 30.00 in 9.0 mi SSE 3.5 mph - N/A   Clear
1:18 AM 62.6 °F - 62.6 °F 100% 30.00 in 9.0 mi SSE 4.6 mph - N/A   Clear
1:43 AM 62.6 °F - 62.6 °F 100% 29.99 in 9.0 mi South 1.2 mph - N/A   Clear
1:58 AM 61.7 °F - 61.7 °F 100% 29.99 in 7.0 mi South 2.3 mph - N/A   Clear
2:18 AM 60.8 °F - 60.8 °F 100% 29.98 in 8.0 mi South 2.3 mph - N/A   Clear
2:28 AM 60.8 °F - 60.8 °F 100% 29.98 in 9.0 mi South 1.2 mph - N/A   Clear
2:33 AM 60.8 °F - 60.8 °F 100% 29.98 in 10.0 mi South 2.3 mph - N/A   Clear
2:43 AM 60.8 °F - 60.8 °F 100% 29.98 in 9.0 mi SSE 2.3 mph - N/A   Clear
2:53 AM 62.6 °F - 62.6 °F 100% 29.98 in 10.0 mi SSE 3.5 mph - N/A   Clear
2:58 AM 62.4 °F - 62.4 °F 100% 29.98 in 10.0 mi SSE 3.5 mph - N/A   Clear
3:58 AM 61.0 °F - 61.0 °F 100% 29.97 in 10.0 mi South 4.6 mph - N/A   Clear
4:58 AM 61.2 °F - 61.2 °F 100% 29.97 in 10.0 mi SSE 3.5 mph - N/A   Clear
5:38 AM 60.8 °F - 60.8 °F 100% 29.97 in 10.0 mi South 4.6 mph - N/A   Mostly Cloudy
5:43 AM 60.8 °F - 60.8 °F 100% 29.97 in 9.0 mi South 4.6 mph - N/A   Mostly Cloudy
5:58 AM 62.6 °F - 62.6 °F 100% 29.98 in 2.0 mi South 3.5 mph - N/A   Overcast
6:03 AM 62.6 °F - 62.6 °F 100% 29.98 in 1.0 mi South 3.5 mph - N/A   Overcast
6:08 AM 62.6 °F - 62.6 °F 100% 29.97 in 0.8 mi South 4.6 mph - N/A   Mist
6:38 AM 62.6 °F - 62.6 °F 100% 29.97 in 0.5 mi South 3.5 mph - N/A Fog Fog
6:48 AM 62.6 °F - 62.6 °F 100% 29.97 in 0.2 mi South 3.5 mph - N/A Fog Fog
6:58 AM 63.0 °F - 63.0 °F 100% 29.97 in 0.2 mi South 3.5 mph - N/A Fog Fog
7:03 AM 62.6 °F - 62.6 °F 100% 29.97 in 0.5 mi SSE 3.5 mph - N/A Fog Fog
7:28 AM 62.6 °F - 62.6 °F 100% 29.97 in 0.8 mi SSE 5.8 mph - N/A   Overcast
7:33 AM 62.6 °F - 62.6 °F 100% 29.97 in 1.0 mi SSE 5.8 mph - N/A   Overcast
7:38 AM 62.6 °F - 62.6 °F 100% 29.97 in 1.5 mi SSE 4.6 mph - N/A   Overcast
7:43 AM 62.6 °F - 62.6 °F 100% 29.97 in 2.5 mi SSE 5.8 mph - N/A   Overcast
7:48 AM 62.6 °F - 62.6 °F 100% 29.97 in 3.0 mi SSE 4.6 mph - N/A   Overcast
7:58 AM 63.9 °F - 63.9 °F 100% 29.96 in 6.0 mi SSE 4.6 mph - N/A   Overcast
8:08 AM 64.4 °F - 64.4 °F 100% 29.96 in 10.0 mi SSE 5.8 mph - N/A   Scattered Clouds
8:58 AM 67.1 °F - 66.6 °F 98% 29.96 in 10.0 mi SSE 2.3 mph - N/A   Partly Cloudy
9:58 AM 75.9 °F - 66.2 °F 72% 29.94 in 10.0 mi SW 9.2 mph - N/A   Clear
10:58 AM 80.1 °F 81.9 °F 65.1 °F 60% 29.92 in 10.0 mi SW 10.4 mph - N/A   Clear
11:58 AM 81.9 °F 82.3 °F 60.6 °F 48% 29.90 in 10.0 mi WSW 9.2 mph - N/A   Clear
12:58 PM 82.6 °F 83.2 °F 61.7 °F 49% 29.89 in 10.0 mi West 8.1 mph - N/A   Partly Cloudy
1:58 PM 82.2 °F 82.7 °F 60.8 °F 48% 29.87 in 10.0 mi West 10.4 mph 17.3 mph N/A   Scattered Clouds
2:58 PM 79.9 °F - 59.0 °F 49% 29.86 in 10.0 mi WSW 11.5 mph 18.4 mph N/A   Partly Cloudy
3:58 PM 80.4 °F 80.4 °F 55.2 °F 42% 29.84 in 10.0 mi WSW 9.2 mph - N/A   Scattered Clouds
4:44 PM 77.0 °F - 59.0 °F 54% 29.84 in 10.0 mi SW 8.1 mph - N/A Rain Light Rain
4:58 PM 76.8 °F - 60.1 °F 56% 29.83 in 10.0 mi SW 8.1 mph - 0.00 in   Light Drizzle
4:59 PM 77.0 °F - 60.8 °F 57% 29.84 in 10.0 mi SW 8.1 mph - N/A   Partly Cloudy
5:58 PM 77.9 °F - 62.4 °F 59% 29.82 in 10.0 mi SW 9.2 mph - 0.00 in   Partly Cloudy
6:58 PM 76.8 °F - 63.0 °F 62% 29.81 in 10.0 mi SSW 5.8 mph - N/A   Scattered Clouds
7:58 PM 74.1 °F - 63.9 °F 70% 29.80 in 10.0 mi South 5.8 mph - N/A   Scattered Clouds
8:58 PM 72.5 °F - 64.6 °F 76% 29.79 in 10.0 mi SSW 6.9 mph - N/A   Mostly Cloudy
9:37 PM 73.4 °F - 64.4 °F 73% 29.80 in 10.0 mi SSW 4.6 mph - N/A Rain Light Rain
9:48 PM 71.6 °F - 66.2 °F 83% 29.80 in 10.0 mi SSW 6.9 mph - N/A   Scattered Clouds
9:58 PM 71.8 °F - 66.4 °F 83% 29.79 in 10.0 mi SW 6.9 mph - 0.00 in   Mostly Cloudy
10:18 PM 73.4 °F - 64.4 °F 73% 29.80 in 3.0 mi SW 10.4 mph 18.4 mph N/A   Light Drizzle
10:30 PM 71.6 °F - 62.6 °F 73% 29.80 in 10.0 mi SW 12.7 mph - N/A   Mostly Cloudy
10:45 PM 69.8 °F - 66.2 °F 88% 29.80 in 10.0 mi SW 5.8 mph - N/A Rain Heavy Rain
10:55 PM 69.8 °F - 66.2 °F 88% 29.80 in 5.0 mi South 5.8 mph - N/A Rain Light Rain
10:58 PM 69.6 °F - 66.2 °F 89% 29.79 in 5.0 mi South 3.5 mph - 0.01 in Rain Light Rain
11:02 PM 69.8 °F - 66.2 °F 88% 29.80 in 10.0 mi South 3.5 mph - N/A   Overcast
11:45 PM 69.8 °F - 68.0 °F 94% 29.80 in 10.0 mi SSW 4.6 mph - N/A   Light Drizzle
11:58 PM 68.5 °F - 67.6 °F 97% 29.79 in 9.0 mi WSW 4.6 mph - 0.00 in Rain Light Rain